Location: ???????
(55.4362°N, 38.1183°E)
Time: 14:36:27
(UTC+00:00)

FENGYUN 1C DEB - Pass Details

Date: 01 February 2022
Orbit: 807 x 954 km, 100.9° (Epoch: 15 May)

Event Time Altitude Azimuth Distance (km) Brightness Sun altitude
Rises 23:38:15 0° 20° (NNE) 3,425 ? -45.5°
Reaches altitude 10° 23:40:36 10° 23° (NNE) 2,505 ? -45.2°
Enters shadow 23:41:08 13° 23° (NNE) 2,295 ? -45.2°
